Location: Unspecified
(0.0000°N, 0.0000°E)
Time: 04:50:45
(UTC+00:00)

THORAD DELTA 1 DEB - Visible Passes

Search period start: 14 February 2026 00:00
Search period end: 24 February 2026 00:00
Orbit: 1451 x 1739 km, 101.5° (Epoch: 3 September)

Date Brightness Start Highest point End Pass type
(mag) Time Alt. Az. Time Alt. Az. Time Alt. Az.
14 Feb ? 19:03:30 10° ESE 19:08:26 17° ENE 19:13:14 10° NE visible
14 Feb ? 20:55:30 10° S 21:04:01 60° WSW 21:12:11 10° NNW visible
15 Feb ? 20:33:28 10° SSE 20:42:10 86° WSW 20:50:29 10° NNW visible
16 Feb ? 20:11:44 10° SSE 20:20:17 67° ENE 20:28:29 10° N visible
16 Feb ? 22:11:24 10° SW 22:15:38 15° WSW 22:19:48 10° WNW visible
17 Feb ? 19:50:20 10° SE 19:58:24 45° ENE 20:06:10 10° N visible
17 Feb ? 21:47:30 10° SSW 21:53:52 23° WSW 22:00:06 10° WNW visible
18 Feb ? 19:29:22 10° SE 19:36:31 30° ENE 19:43:28 10° NNE visible
18 Feb ? 21:24:31 10° S 21:32:05 35° WSW 21:39:26 10° NW visible
19 Feb ? 19:09:02 10° ESE 19:14:40 20° ENE 19:20:10 10° NNE visible
19 Feb ? 21:02:00 10° S 21:10:15 52° WSW 21:18:14 10° NNW visible
20 Feb ? 18:50:21 10° E 18:52:51 12° ENE 18:55:19 10° NE visible
20 Feb ? 20:39:50 10° S 20:48:24 76° WSW 20:56:40 10° NNW visible
21 Feb ? 20:17:59 10° SSE 20:26:31 76° ENE 20:34:47 10° N visible
21 Feb ? 22:19:11 10° SW 22:21:51 12° WSW 22:24:30 10° W visible
22 Feb ? 19:56:28 10° SSE 20:04:39 52° ENE 20:12:35 10° N visible
22 Feb ? 21:54:27 10° SSW 22:00:06 20° WSW 22:05:41 10° WNW visible
23 Feb ? 19:35:19 10° SE 19:42:46 35° ENE 19:50:02 10° NNE visible
23 Feb ? 21:31:12 10° SSW 21:38:19 30° WSW 21:45:17 10° NW visible
